Погода в Джорджтауне

Малайзия     5°25′25″N   100°18′59″E
темп.,
°C
ветер,
м/с
пор.,
м/с
влажн.,
%
обл.,
%
осадки,
мм/ч
давл.,
гПа
погр.,
м
20 апреля, вт
вт2023:00+28сз347730 1.8 1012476
02:00+27ссз347518 4.1 1011498
05:00+27с237763 0.8 1009428
08:00+26в338372 1.4 1011201
11:00+28св22767 0.7 1012440
14:00+28сз4573100 1.1 1010716
17:00+29сз457192 0.6 1008855
20:00+28сз3473100 0.6 1009696
21 апреля, ср
ср2123:00+28с237388 0.0 1011428
02:00+27св2277100 0.0 1010303
05:00+27всв1180100 0.0 1008281
08:00+26всв228398 0.0 1010191
11:00+28ссз227599 0.8 1012450
14:00+29сз347084 0.9 1010763
17:00+29сз457192 0.8 1008899
20:00+29сз4475100 1.0 1009662
22 апреля, чт
чт2223:00+28сз337798 1.7 1011340
02:00+28сз3477100 7.3 1010350
05:00+27зсз3481100 6.2 1009336
08:00+26сз3383100 13.1 1011183
11:00+27сз347999 1.0 1012625
14:00+28сз557698 1.1 1010826
17:00+28зсз457197 1.1 1009836
20:00+27зсз3477100 2.4 1010361
23 апреля, пт
пт2323:00+27зюз1273100 1.8 1012479
02:00+27ююз2376100 1.8 1010486
05:00+27зсз237799 0.6 1009504
08:00+28сз457481 1.1 1010720
11:00+28сз447692 2.6 1012510
14:00+26з3481100 6.9 1010462
17:00+26з558199 2.5 1009623
20:00+25зюз3380100 2.8 1011259
24 апреля, сб
сб2423:00+26ю2376100 0.0 1012268
02:00+26ююв227499 0.0 1010303
05:00+26ююз227662 0.2 1010404
08:00+27з347859 0.7 1011572
11:00+27з2276100 1.0 1012568
14:00+27сз3374100 1.0 1010610
17:00+28сз4574100 0.0 1009743
20:00+27с4476100 0.1 1010507